Wind_Speed
14 14 15 17 17 18 19 19 19 20 20 21 23 24 25 26 26 26 26 27 26 25 25 15 12 9 3 3 9 9 6 8 6 1 3 1 3 2 4 6 10 3 5 2 8 7 6
13 14 15 15 16 17 18 19 20 20 21 22 23 25 26 28 28 28 27 27 26 25 21 12 9 6 1 3 6 8 7 14 12 4 1 3 0 3 5 4 1 6 6 8 7 8 7
14 14 15 16 17 17 18 19 20 21 21 23 24 25 27 28 29 30 29 28 26 25 14 8 4 2 0 14 3 9 14 9 8 7 3 3 4 1 4 7 4 6 5 7 1 4 4
14 15 16 17 19 17 18 19 20 21 22 23 25 26 27 29 31 30 30 29 29 19 7 4 1 1 7 6 12 13 11 10 6 7 9 13 5 4 3 3 7 6 5 2 6 7 6
15 15 16 17 18 18 19 19 20 21 23 24 26 26 28 30 31 32 31 29 19 4 2 1 2 2 9 13 6 8 10 6 4 5 5 7 1 1 5 3 5 6 3 5 1 10 3
15 16 17 17 17 18 18 19 20 21 22 25 27 27 28 31 31 31 31 22 5 3 2 1 1 2 7 1 6 12 6 6 2 3 6 5 5 3 4 5 2 4 6 7 2 9 8
15 15 16 17 18 18 19 19 20 21 23 26 28 27 29 32 28 32 24 4 5 3 1 6 7 5 8 11 9 4 4 5 4 7 2 4 4 4 8 5 5 3 3 5 11 8 10
15 15 16 17 17 18 19 20 21 23 25 27 28 28 30 32 33 19 8 4 5 2 9 10 14 8 10 3 5 5 5 5 4 4 2 5 4 8 2 1 3 4 4 9 11 2 3
16 16 17 17 18 18 19 20 22 24 26 27 28 28 31 31 20 3 17 1 12 12 3 7 6 5 5 10 7 7 8 5 4 4 3 5 6 3 3 2 4 3 4 5 8 6 1
17 17 17 17 18 19 20 21 21 23 25 27 28 28 30 34 2 20 8 14 24 1 4 6 4 6 6 6 4 9 9 6 2 8 7 4 6 3 1 4 6 6 5 9 11 4 1
17 17 17 16 17 19 20 21 23 24 26 27 28 27 29 26 16 8 8 22 15 4 3 0 2 6 3 9 2 1 6 6 8 6 7 7 2 4 5 9 5 11 4 10 7 3 5
16 15 17 19 20 20 21 22 23 24 26 27 28 27 29 13 16 15 13 21 2 5 4 4 3 4 5 1 3 4 4 5 4 4 3 7 2 5 7 4 6 6 3 5 3 4 2
15 15 17 18 19 19 20 22 24 24 25 28 29 27 28 19 5 6 19 4 5 3 6 6 4 2 2 4 2 4 4 3 5 3 5 5 7 4 4 4 3 4 6 3 3 3 6
15 15 16 16 18 19 21 23 24 23 26 29 32 28 20 20 12 4 5 5 2 2 5 4 4 4 5 4 4 3 6 5 4 4 3 5 6 7 4 8 8 7 9 6 6 5 5
15 16 17 18 18 19 21 21 25 25 28 33 30 16 14 5 9 10 4 3 6 5 4 8 8 5 3 1 3 3 5 5 9 9 8 5 5 1 3 4 7 3 3 6 7 3 3
14 15 17 18 18 19 20 22 25 25 28 28 18 10 8 1 19 7 5 4 4 4 5 3 3 3 3 4 2 4 6 5 6 11 6 4 3 5 2 3 1 5 5 3 3 4 3
14 14 16 16 17 19 21 22 24 25 30 16 5 4 5 15 11 5 3 6 5 6 3 3 1 3 6 4 3 3 4 6 6 1 7 6 4 5 3 3 5 2 1 4 5 5 6
14 13 15 15 16 18 19 21 22 24 29 12 6 3 1 18 4 1 3 5 3 5 3 7 4 8 6 5 4 3 3 5 9 8 10 8 5 5 11 5 1 2 6 7 5 5 2
14 13 13 13 15 16 17 18 19 18 20 8 3 3 6 7 1 1 4 4 4 4 4 3 4 4 4 2 3 2 1 5 9 3 9 9 2 2 10 7 4 3 4 4 4 4 5
13 13 13 13 13 15 14 16 17 15 15 6 2 2 3 2 0 3 3 6 4 4 5 5 7 4 2 4 3 2 2 3 6 6 7 5 4 8 10 8 4 4 4 3 7 4 4
13 12 13 12 12 13 13 14 14 13 14 4 1 1 2 2 2 3 2 3 6 5 2 6 6 5 2 4 2 3 1 4 3 6 4 4 2 1 6 6 6 6 5 4 3 5 5
13 12 12 10 10 11 12 12 12 12 12 3 2 3 4 2 3 4 2 1 3 6 2 5 4 15 4 4 5 6 4 3 2 6 3 4 1 2 3 5 5 3 5 5 6 5 5
13 12 12 11 9 9 9 9 10 9 8 3 4 3 2 3 4 1 1 4 4 7 3 4 5 5 6 4 8 6 2 3 3 1 1 3 3 3 4 5 1 3 7 5 5 3 5
13 12 12 9 8 7 8 8 7 6 5 1 2 2 2 3 1 0 4 6 7 6 4 6 4 4 4 9 4 2 5 3 6 5 1 3 4 2 3 4 1 9 4 5 6 4 2
13 12 10 9 8 7 6 6 6 5 4 2 3 2 1 3 2 6 4 4 9 5 3 3 3 3 8 6 4 5 5 4 5 4 6 3 2 3 3 3 6 3 5 3 6 0 4
13 12 10 9 8 7 6 6 6 5 5 5 6 4 2 1 4 2 3 3 3 3 5 4 5 7 5 3 3 3 3 2 5 9 5 4 4 3 3 3 5 5 5 11 6 2 4
14 12 10 9 8 8 6 6 6 6 6 5 5 3 3 2 3 1 3 3 3 3 3 4 6 7 3 3 2 2 4 1 2 2 4 5 3 3 3 3 6 0 10 7 5 7 2
15 13 10 9 8 8 6 5 6 6 5 6 5 4 3 2 5 5 2 1 4 2 1 4 3 3 4 4 3 1 1 3 1 3 2 3 1 3 1 3 4 3 8 6 3 4 14
15 12 11 9 8 8 6 6 6 5 5 3 3 2 7 4 5 16 20 26 23 17 2 3 3 3 3 3 0 3 2 1 1 3 1 3 5 3 6 4 3 3 5 8 1 9 6
Wind_Direction
360 359 357 356 357 358 356 355 353 351 350 349 347 348 346 344 341 338 334 331 332 335 333 331 329 331 338 12 252 266 307 348 348 240 244 354 21 52 2 297 329 139 354 31 107 124 102
350 349 349 348 348 349 348 348 346 345 345 344 343 343 341 339 338 335 331 328 327 327 325 322 327 328 37 266 262 293 305 291 289 308 278 121 268 226 260 282 330 299 296 118 132 162 138
345 344 344 342 339 341 344 344 343 342 341 340 340 339 338 336 334 332 328 324 323 321 312 311 320 323 188 238 223 286 304 302 298 267 296 276 264 107 314 317 310 288 99 76 221 171 103
344 343 342 340 340 340 342 341 340 339 339 337 338 336 334 332 331 330 325 322 321 313 284 292 307 125 247 266 299 272 274 292 280 280 246 281 287 204 177 301 355 358 84 171 197 179 168
343 344 343 342 341 342 338 338 338 339 339 339 338 335 333 331 330 330 323 324 324 322 218 238 118 137 266 313 275 274 249 240 305 321 304 289 54 119 28 40 8 3 348 2 127 215 106
339 339 340 340 339 339 338 337 337 339 339 339 338 335 332 330 331 330 323 327 17 87 117 67 229 348 284 42 313 313 241 219 85 10 11 46 53 73 47 68 250 323 332 329 177 217 212
332 333 334 336 337 338 336 338 339 339 338 338 336 335 333 331 334 327 331 359 12 356 356 240 239 248 290 306 308 296 242 113 69 63 163 353 87 194 221 176 191 258 266 298 292 193 170
331 331 331 332 333 334 334 333 333 333 334 334 335 334 332 333 334 328 4 55 90 339 296 245 248 248 257 22 318 302 161 130 117 197 113 19 218 218 249 210 253 264 330 301 275 195 154
329 328 328 329 330 330 329 330 330 331 332 334 334 335 334 334 334 34 326 278 327 335 241 292 211 219 205 147 206 265 142 131 139 176 145 162 234 119 167 275 276 285 223 274 253 332 21
324 326 325 324 326 324 326 328 330 332 332 333 334 336 336 338 25 330 306 335 333 174 37 277 258 264 143 144 265 221 164 140 69 189 162 224 260 204 233 253 142 276 181 246 268 71 356
324 323 325 325 325 326 325 323 325 326 327 329 331 332 333 340 306 305 320 333 340 118 346 36 216 160 173 150 241 324 169 52 169 189 105 244 237 187 192 229 152 244 192 251 245 66 83
330 327 323 323 322 322 324 325 324 324 325 327 328 327 327 330 301 282 323 335 31 43 264 350 119 173 121 295 325 22 81 60 156 147 3 225 252 158 211 270 199 272 254 41 35 108 51
332 329 329 331 336 334 330 329 328 327 327 328 325 318 312 292 251 304 323 2 46 144 322 352 17 196 105 178 231 143 181 147 174 122 268 319 267 244 184 308 352 131 69 331 355 12 231
338 339 340 342 341 341 337 332 335 334 331 330 323 314 303 270 260 283 324 55 155 264 270 325 312 270 166 153 252 181 144 211 227 121 108 176 327 171 167 180 208 194 160 161 210 207 257
338 334 334 336 337 338 339 342 341 337 335 335 324 319 301 294 214 192 79 82 209 217 333 326 335 64 355 203 126 121 208 231 207 168 178 155 268 261 165 158 147 242 169 187 105 20 72
327 330 335 337 337 339 339 341 344 340 338 337 327 327 290 192 144 135 75 232 251 244 339 331 27 57 12 291 160 157 203 219 228 182 154 218 293 227 255 151 259 161 168 76 359 130 217
321 327 332 336 336 337 339 341 346 344 343 343 340 2 344 149 137 55 151 231 268 257 327 331 295 281 242 289 203 206 229 282 205 183 138 142 123 254 90 173 225 40 342 29 121 128 163
313 320 327 334 333 334 338 340 348 351 353 1 339 38 144 153 60 63 165 202 276 280 169 254 212 210 224 259 247 248 232 208 310 159 174 202 152 232 224 255 244 192 225 161 139 220 171
305 307 324 329 334 335 337 339 349 355 7 351 359 284 169 253 118 280 291 283 243 270 270 252 270 235 215 244 319 192 270 256 332 160 175 171 255 311 332 352 18 211 181 147 134 93 187
304 300 313 321 332 333 336 337 347 351 357 7 339 51 326 80 213 116 2 293 292 270 259 221 249 267 280 196 241 254 292 303 345 346 32 105 129 167 218 206 163 276 190 171 127 116 189
297 303 307 315 328 330 332 334 341 347 345 354 8 342 175 298 344 326 193 293 302 333 254 12 345 343 254 270 166 223 252 316 299 328 54 90 161 326 224 210 179 194 241 173 153 178 162
288 295 304 306 315 328 326 331 334 347 350 29 79 21 351 281 307 334 41 7 324 322 270 324 2 319 314 184 227 235 184 204 254 342 60 359 138 76 270 238 254 283 267 170 207 198 246
280 288 299 301 302 321 318 322 330 351 357 343 359 2 107 293 341 63 203 308 318 325 294 325 318 314 10 5 298 266 105 133 181 330 21 77 106 70 289 350 302 2 247 235 228 181 153
275 283 290 291 294 302 309 314 319 340 349 348 352 337 40 285 313 326 329 312 310 322 260 286 326 359 286 326 278 358 64 90 71 36 114 136 104 96 217 22 299 239 288 248 236 97 281
268 277 281 281 287 283 301 300 300 308 278 293 296 358 336 274 309 286 333 296 310 303 287 284 301 259 308 5 34 10 346 10 8 19 338 58 133 110 159 181 278 287 328 192 171 269 335
259 267 271 272 278 276 277 290 284 283 275 268 274 248 270 320 248 308 308 296 288 312 331 289 319 299 11 68 80 157 221 241 321 341 32 10 90 136 124 157 219 252 346 336 313 294 333
249 257 257 265 270 267 266 272 275 274 279 243 268 283 266 260 266 74 229 257 331 342 278 297 327 331 34 73 71 166 223 186 233 203 334 320 3 214 164 191 277 351 300 302 156 222 208
239 247 248 255 260 258 255 259 262 270 238 224 268 308 231 260 270 229 244 270 333 254 261 292 359 339 2 84 142 191 195 226 246 254 195 186 137 237 246 144 270 2 345 181 317 172 138
236 237 241 244 248 246 242 254 252 247 222 209 257 237 313 223 250 293 277 252 244 240 59 309 249 234 201 79 93 120 188 213 183 278 90 266 188 229 191 243 249 168 224 284 358 266 199
Height
842 840 837 835 832 829 827 824 821 818 815 812 808 804 801 797 792 788 784 780 776 773 769 767 765 764 763 764 754 738 739 740 741 741 742 743 749 753 765 758 746 749 742 740 744 750 753
842 840 837 835 832 830 827 824 821 817 814 811 807 803 799 794 790 786 782 778 774 770 767 766 764 764 764 772 740 738 738 738 740 741 741 743 746 745 754 754 757 743 744 745 752 751 752
842 839 837 834 831 829 826 823 820 817 813 810 806 802 798 793 788 783 779 775 771 767 764 763 763 763 764 751 738 737 737 737 739 740 742 741 741 746 746 755 741 740 761 758 762 755 759
841 838 836 833 830 827 825 822 819 816 812 808 804 800 796 791 786 780 775 770 766 762 761 761 762 762 761 738 737 735 735 736 737 738 739 739 739 742 747 743 748 756 759 785 762 758 756
839 837 835 832 830 827 824 821 818 814 811 807 802 798 793 788 783 777 770 766 761 759 759 760 761 761 758 737 735 732 733 735 735 736 737 737 738 748 750 768 782 777 792 781 776 757 759
839 836 833 831 829 826 823 820 817 813 809 805 800 795 790 785 780 773 767 762 760 760 760 761 761 766 744 740 734 733 732 734 736 737 740 741 754 769 777 784 813 796 794 781 780 767 763
837 835 832 830 827 824 821 818 815 812 808 804 799 794 789 783 777 771 764 761 765 765 760 757 754 751 743 737 733 731 732 733 736 746 765 757 774 787 777 773 774 776 783 788 768 752 764
836 833 831 828 825 822 819 816 813 810 806 802 797 792 787 781 776 770 769 771 773 778 774 745 742 743 739 740 747 734 732 743 749 767 760 775 786 767 762 765 772 777 785 785 762 746 750
834 831 829 826 823 820 817 814 811 807 804 800 795 790 784 778 772 771 770 771 771 770 775 747 738 738 737 739 747 740 732 742 753 765 769 784 768 754 762 768 777 779 785 781 777 754 751
832 829 827 824 821 818 815 812 809 805 801 797 793 789 784 777 775 772 767 767 765 763 789 759 743 732 731 733 744 726 728 738 751 766 771 772 755 758 765 773 776 791 763 765 763 775 799
830 827 824 822 819 816 813 809 806 803 799 795 791 787 784 782 779 774 768 764 760 762 807 741 737 723 727 738 733 729 726 734 758 758 767 774 758 762 771 767 762 774 756 763 761 777 787
828 825 822 819 816 813 810 807 803 799 795 792 788 785 781 780 777 768 766 762 761 797 801 748 732 739 742 737 736 728 731 729 738 754 758 762 746 752 757 749 753 749 757 770 779 787 820
826 824 821 817 814 811 807 804 800 796 792 787 783 779 778 777 770 767 766 763 799 809 755 755 748 740 744 747 743 741 746 755 770 784 785 768 761 747 743 759 752 756 785 819 816 816 824
825 822 819 816 813 809 805 801 797 793 788 783 776 772 767 765 766 768 767 780 803 776 770 748 745 745 751 748 747 745 755 767 756 763 791 790 791 755 742 753 763 769 781 817 829 829 816
823 821 818 815 811 808 804 800 795 790 785 779 771 765 761 757 759 767 775 802 794 782 761 761 753 756 755 745 746 749 758 765 752 756 778 789 779 741 736 734 745 762 781 766 809 813 816
822 819 817 814 811 807 803 799 794 789 783 776 770 766 759 757 760 765 784 798 784 766 759 758 770 759 769 755 750 758 758 740 742 740 739 756 781 749 737 733 736 749 750 786 800 820 820
820 818 816 813 810 806 802 798 794 788 781 774 772 769 759 760 762 773 796 797 776 760 756 763 764 766 766 756 750 758 754 736 727 733 736 755 768 760 738 748 752 759 768 777 782 797 814
818 817 814 812 809 806 802 798 794 789 781 775 775 773 763 765 777 788 790 779 765 759 753 757 756 760 763 751 752 748 749 737 719 726 748 744 770 780 761 735 732 739 752 763 792 794 801
816 815 813 811 808 805 802 799 795 791 788 785 785 782 768 769 786 787 778 770 763 761 756 754 752 745 741 745 754 745 739 719 717 723 733 738 766 785 775 757 737 742 741 749 764 774 792
813 812 811 809 807 805 802 799 796 793 790 789 787 781 774 771 776 775 777 773 767 749 750 746 745 740 743 746 744 742 740 725 720 724 721 723 762 762 775 768 748 750 741 742 757 785 779
811 810 808 807 806 804 801 799 797 794 791 790 789 787 785 786 780 776 772 770 768 765 748 745 746 746 751 753 747 745 737 737 724 728 724 733 757 754 749 742 744 736 737 745 746 752 763
809 808 806 805 804 803 801 799 797 794 791 790 791 791 786 786 782 775 775 768 768 761 754 756 756 743 740 748 743 744 738 739 736 731 732 738 757 747 747 742 741 736 729 733 734 736 737
806 805 804 803 802 802 801 799 797 795 793 791 790 789 790 786 783 779 779 773 765 761 750 745 748 748 745 741 736 731 728 736 731 735 741 744 754 763 767 756 745 759 738 728 724 722 726
802 802 801 801 800 800 800 798 797 796 795 795 793 793 794 790 784 781 777 772 766 764 763 747 743 747 733 729 725 727 731 735 734 738 740 749 754 766 769 762 777 739 717 712 718 716 723
798 799 799 798 798 798 798 797 796 796 796 795 794 794 793 791 789 781 776 773 767 764 759 751 743 738 733 732 747 754 753 742 743 740 743 747 756 769 771 784 760 720 716 718 720 723 717
794 794 795 796 796 795 796 796 795 795 795 795 794 794 795 793 789 780 779 774 776 773 766 753 740 736 734 749 756 763 773 767 758 752 742 745 754 756 777 771 772 737 723 719 714 741 718
790 790 791 793 793 793 793 793 793 793 793 794 793 793 793 790 782 779 781 779 775 774 775 765 754 747 741 763 769 774 773 769 769 766 769 768 762 763 769 765 751 735 727 722 743 744 717
785 786 788 789 790 790 791 791 791 791 792 792 792 792 792 788 780 776 775 776 777 776 777 765 760 757 757 767 770 773 776 774 773 765 763 768 770 769 768 759 754 722 719 726 721 713 705
780 782 784 786 787 788 789 789 790 790 789 790 791 790 790 789 778 771 770 769 769 771 775 770 765 761 758 768 769 772 775 777 778 773 762 768 761 766 759 744 720 717 724 719 713 713 696